| time (UTC) | temp F | wind direction | speed knots | gust knots | rain 1hr in | rain 24hr in | rain mn in | humidity % | barometer mb |
| 20260903113325 | 69 | 10 | 1.7 | 5.2 | 0.00 | 0.00 | 0.00 | 86 | 1017.9 |
| 20260903113033 | 69 | 7 | 1.7 | 6.1 | 0.00 | 0.00 | 0.00 | 86 | 1017.8 |
| 20260903112230 | 69 | 16 | 2.6 | 6.1 | 0.00 | 0.00 | 0.00 | 86 | 1017.9 |
| 20260903111721 | 69 | 358 | 2.6 | 8.7 | 0.00 | 0.00 | 0.00 | 86 | 1017.8 |
| 20260903111442 | 69 | 355 | 2.6 | 8.7 | 0.00 | 0.00 | 0.00 | 87 | 1017.8 |
| 20260903110731 | 69 | 30 | 3.5 | 8.7 | 0.00 | 0.00 | 0.00 | 87 | 1017.7 |
| 20260903110216 | 69 | 358 | 3.5 | 8.7 | 0.00 | 0.00 | 0.00 | 87 | 1017.8 |
| 20260903105715 | 69 | 350 | 3.5 | 10.4 | 0.00 | 0.00 | 0.00 | 87 | 1017.7 |
| 20260903105216 | 69 | 4 | 3.5 | 10.4 | 0.00 | 0.00 | 0.00 | 87 | 1017.7 |
| 20260903104714 | 69 | 6 | 2.6 | 7.8 | 0.00 | 0.00 | 0.00 | 87 | 1017.7 |
| 20260903104208 | 69 | 17 | 2.6 | 8.7 | 0.00 | 0.00 | 0.00 | 87 | 1017.7 |
| 20260903103705 | 69 | 345 | 2.6 | 8.7 | 0.00 | 0.00 | 0.00 | 87 | 1017.7 |
| 20260903103421 | 69 | 358 | 2.6 | 7.0 | 0.00 | 0.00 | 0.00 | 87 | 1017.7 |
| 20260903102700 | 69 | 329 | 1.7 | 5.2 | 0.00 | 0.00 | 0.00 | 86 | 1017.7 |
| 20260903102157 | 69 | 48 | 0.9 | 4.3 | 0.00 | 0.00 | 0.00 | 86 | 1017.7 |
| 20260903101657 | 69 | 333 | 0.9 | 4.3 | 0.00 | 0.00 | 0.00 | 86 | 1017.7 |
| 20260903101157 | 69 | 41 | 0.9 | 3.5 | 0.00 | 0.00 | 0.00 | 85 | 1017.6 |
| 20260903100656 | 69 | 34 | 0.9 | 3.5 | 0.00 | 0.00 | 0.00 | 85 | 1017.5 |
| 20260903100419 | 69 | 13 | 1.7 | 6.1 | 0.00 | 0.00 | 0.00 | 85 | 1017.5 |
| 20260903095657 | 69 | 0 | 1.7 | 5.2 | 0.00 | 0.00 | 0.00 | 85 | 1017.5 |
| 20260903095133 | 69 | 46 | 2.6 | 7.0 | 0.00 | 0.00 | 0.00 | 85 | 1017.4 |
| 20260903094602 | 69 | 346 | 2.6 | 6.1 | 0.00 | 0.00 | 0.00 | 85 | 1017.4 |
| 20260903094034 | 69 | 345 | 2.6 | 6.1 | 0.00 | 0.00 | 0.00 | 84 | 1017.4 |
| 20260903093506 | 69 | 0 | 2.6 | 8.7 | 0.00 | 0.00 | 0.00 | 84 | 1017.4 |
| 20260903092940 | 69 | 350 | 2.6 | 8.7 | 0.00 | 0.00 | 0.00 | 84 | 1017.3 |
| 20260903092420 | 69 | 337 | 1.7 | 5.2 | 0.00 | 0.00 | 0.00 | 84 | 1017.2 |
| 20260903091922 | 70 | 339 | 1.7 | 5.2 | 0.00 | 0.00 | 0.00 | 84 | 1017.2 |
| 20260903091413 | 70 | 5 | 1.7 | 5.2 | 0.00 | 0.00 | 0.00 | 84 | 1017.1 |
| 20260903090912 | 70 | 339 | 1.7 | 8.7 | 0.00 | 0.00 | 0.00 | 84 | 1017.2 |
| 20260903090412 | 70 | 342 | 2.6 | 8.7 | 0.00 | 0.00 | 0.00 | 84 | 1017.1 |
| 20260903085913 | 70 | 2 | 3.5 | 8.7 | 0.00 | 0.00 | 0.00 | 84 | 1017.1 |
| 20260903085634 | 70 | 352 | 4.3 | 8.7 | 0.00 | 0.00 | 0.00 | 84 | 1017.1 |
| 20260903084911 | 70 | 62 | 3.5 | 8.7 | 0.00 | 0.00 | 0.00 | 84 | 1017.0 |
| 20260903084410 | 70 | 16 | 3.5 | 7.8 | 0.00 | 0.00 | 0.00 | 83 | 1017.0 |
| 20260903084400 | 70 | 32 | 3.5 | 7.8 | 0.00 | 0.00 | 0.00 | 83 | 1017.0 |
| 20260903083635 | 70 | 344 | 3.5 | 7.8 | 0.00 | 0.00 | 0.00 | 83 | 1017.0 |
| 20260903082911 | 70 | 341 | 3.5 | 7.8 | 0.00 | 0.00 | 0.00 | 83 | 1016.9 |
| 20260903082411 | 70 | 335 | 2.6 | 6.1 | 0.00 | 0.00 | 0.00 | 82 | 1016.9 |
| 20260903081911 | 70 | 349 | 3.5 | 7.8 | 0.00 | 0.00 | 0.00 | 82 | 1016.8 |
| 20260903081412 | 71 | 355 | 3.5 | 7.8 | 0.00 | 0.00 | 0.00 | 82 | 1016.7 |
| 20260903080857 | 71 | 356 | 2.6 | 7.0 | 0.00 | 0.00 | 0.00 | 82 | 1016.8 |
| 20260903080357 | 71 | 317 | 3.5 | 7.0 | 0.00 | 0.00 | 0.00 | 82 | 1016.8 |
| 20260903075857 | 71 | 324 | 4.3 | 9.6 | 0.00 | 0.00 | 0.00 | 82 | 1016.8 |
| 20260903075357 | 71 | 26 | 4.3 | 9.6 | 0.00 | 0.00 | 0.00 | 81 | 1016.7 |
| 20260903075100 | 71 | 299 | 3.5 | 9.6 | 0.00 | 0.00 | 0.00 | 80 | 1016.7 |
| 20260903074940 | 71 | 324 | 4.3 | 9.6 | 0.00 | 0.00 | 0.00 | 81 | 1016.8 |
| 20260903073859 | 72 | 0 | 2.6 | 7.8 | 0.00 | 0.00 | 0.00 | 80 | 1016.6 |
| 20260903073355 | 72 | 56 | 3.5 | 8.7 | 0.00 | 0.00 | 0.00 | 79 | 1016.6 |
| 20260903072924 | 72 | 35 | 3.5 | 9.6 | 0.00 | 0.00 | 0.00 | 78 | 1016.6 |
| 20260903072854 | 72 | 343 | 4.3 | 8.7 | 0.00 | 0.00 | 0.00 | 79 | 1016.6 |
| 20260903072549 | 73 | 343 | 3.5 | 11.3 | 0.00 | 0.00 | 0.00 | 77 | 1016.5 |
| 20260903071952 | 72 | 14 | 3.5 | 9.6 | 0.00 | 0.00 | 0.00 | 78 | 1016.5 |
| 20260903070856 | 73 | 359 | 3.5 | 11.3 | 0.00 | 0.00 | 0.00 | 77 | 1016.3 |
| 20260903070326 | 73 | 2 | 4.3 | 14.8 | 0.00 | 0.00 | 0.00 | 76 | 1016.5 |
| 20260903065829 | 73 | 350 | 4.3 | 14.8 | 0.00 | 0.00 | 0.00 | 75 | 1016.3 |
| 20260903065325 | 74 | 338 | 4.3 | 12.2 | 0.00 | 0.00 | 0.00 | 74 | 1016.3 |
| 20260903065044 | 74 | 314 | 4.3 | 12.2 | 0.00 | 0.00 | 0.00 | 73 | 1016.2 |
| 20260903064325 | 74 | 337 | 4.3 | 12.2 | 0.00 | 0.00 | 0.00 | 72 | 1016.2 |
| 20260903063824 | 74 | 345 | 5.2 | 12.2 | 0.00 | 0.00 | 0.00 | 71 | 1016.3 |
| 20260903063326 | 75 | 334 | 5.2 | 12.2 | 0.00 | 0.00 | 0.00 | 70 | 1016.3 |
| 20260903062823 | 75 | 324 | 5.2 | 11.3 | 0.00 | 0.00 | 0.00 | 69 | 1016.3 |
| 20260903062322 | 76 | 322 | 5.2 | 11.3 | 0.00 | 0.00 | 0.00 | 68 | 1016.5 |
| 20260903061823 | 76 | 320 | 4.3 | 10.4 | 0.00 | 0.00 | 0.00 | 67 | 1016.3 |
| 20260903061322 | 77 | 0 | 3.5 | 7.8 | 0.00 | 0.00 | 0.00 | 65 | 1016.5 |
| 20260903060824 | 77 | 20 | 3.5 | 7.8 | 0.00 | 0.00 | 0.00 | 65 | 1016.5 |
| 20260903060322 | 77 | 1 | 3.5 | 7.8 | 0.00 | 0.00 | 0.00 | 65 | 1016.2 |
| 20260903055823 | 78 | 6 | 2.6 | 7.8 | 0.00 | 0.00 | 0.00 | 64 | 1016.2 |
| 20260903055547 | 78 | 14 | 2.6 | 7.8 | 0.00 | 0.00 | 0.00 | 65 | 1016.2 |
| 20260903055043 | 78 | 353 | 3.5 | 10.4 | 0.00 | 0.00 | 0.00 | 63 | 1016.2 |
| 20260903054311 | 78 | 339 | 3.5 | 10.4 | 0.00 | 0.00 | 0.00 | 63 | 1016.2 |
| 20260903053810 | 78 | 335 | 2.6 | 10.4 | 0.00 | 0.00 | 0.00 | 64 | 1016.1 |
| 20260903053753 | 78 | 76 | 2.6 | 7.8 | 0.00 | 0.00 | 0.00 | 64 | 1016.1 |
| 20260903052810 | 79 | 20 | 3.5 | 7.8 | 0.00 | 0.00 | 0.00 | 64 | 1016.2 |
| 20260903052310 | 79 | 58 | 3.5 | 8.7 | 0.00 | 0.00 | 0.00 | 62 | 1016.3 |
| 20260903051808 | 80 | 346 | 3.5 | 8.7 | 0.00 | 0.00 | 0.00 | 61 | 1016.3 |
| 20260903051535 | 80 | 338 | 2.6 | 8.7 | 0.00 | 0.00 | 0.00 | 59 | 1016.3 |
| 20260903050818 | 80 | 43 | 2.6 | 6.1 | 0.00 | 0.00 | 0.00 | 60 | 1016.3 |
| 20260903050317 | 80 | 49 | 2.6 | 7.8 | 0.00 | 0.00 | 0.00 | 59 | 1016.3 |
| 20260903045804 | 81 | 330 | 2.6 | 7.8 | 0.00 | 0.00 | 0.00 | 58 | 1016.5 |
| 20260903045306 | 81 | 14 | 2.6 | 6.1 | 0.00 | 0.00 | 0.00 | 58 | 1016.6 |
| 20260903044802 | 81 | 50 | 2.6 | 6.1 | 0.00 | 0.00 | 0.00 | 57 | 1016.7 |
| 20260903044303 | 81 | 50 | 1.7 | 6.1 | 0.00 | 0.00 | 0.00 | 58 | 1016.7 |
| 20260903043801 | 81 | 49 | 2.6 | 7.0 | 0.00 | 0.00 | 0.00 | 58 | 1016.8 |
| 20260903043303 | 81 | 65 | 2.6 | 8.7 | 0.00 | 0.00 | 0.00 | 57 | 1016.9 |
| 20260903042749 | 82 | 342 | 2.6 | 8.7 | 0.00 | 0.00 | 0.00 | 56 | 1016.9 |
| 20260903042249 | 82 | 16 | 2.6 | 6.1 | 0.00 | 0.00 | 0.00 | 56 | 1016.9 |
| 20260903041747 | 81 | 4 | 2.6 | 6.1 | 0.00 | 0.00 | 0.00 | 57 | 1016.9 |
| 20260903041245 | 81 | 52 | 2.6 | 8.7 | 0.00 | 0.00 | 0.00 | 57 | 1017.0 |
| 20260903040744 | 81 | 22 | 3.5 | 8.7 | 0.00 | 0.00 | 0.00 | 57 | 1017.1 |
| 20260903040243 | 81 | 358 | 3.5 | 7.8 | 0.00 | 0.00 | 0.00 | 57 | 1017.1 |
| 20260903040008 | 81 | 37 | 3.5 | 7.8 | 0.00 | 0.00 | 0.00 | 56 | 1017.1 |
| 20260903035504 | 81 | 73 | 2.6 | 7.0 | 0.00 | 0.00 | 0.00 | 57 | 1017.1 |
| 20260903034734 | 81 | 0 | 2.6 | 8.7 | 0.00 | 0.00 | 0.00 | 56 | 1017.2 |
| 20260903034233 | 81 | 316 | 3.5 | 8.7 | 0.00 | 0.00 | 0.00 | 56 | 1017.3 |
| 20260903033730 | 81 | 35 | 2.6 | 7.0 | 0.00 | 0.00 | 0.00 | 56 | 1017.4 |
| 20260903033232 | 81 | 2 | 2.6 | 8.7 | 0.00 | 0.00 | 0.00 | 57 | 1017.5 |
| 20260903032712 | 81 | 22 | 3.5 | 10.4 | 0.00 | 0.00 | 0.00 | 57 | 1017.6 |
| 20260903032213 | 81 | 18 | 3.5 | 10.4 | 0.00 | 0.00 | 0.00 | 57 | 1017.6 |
| 20260903031705 | 81 | 352 | 2.6 | 8.7 | 0.00 | 0.00 | 0.00 | 57 | 1017.7 |
| 20260903031202 | 81 | 48 | 2.6 | 8.7 | 0.00 | 0.00 | 0.00 | 56 | 1017.7 |
| 20260903030701 | 81 | 76 | 2.6 | 8.7 | 0.00 | 0.00 | 0.00 | 55 | 1017.9 |
| 20260903030159 | 81 | 29 | 3.5 | 8.7 | 0.00 | 0.00 | 0.00 | 54 | 1017.9 |
| 20260903025656 | 80 | 24 | 3.5 | 7.0 | 0.00 | 0.00 | 0.00 | 54 | 1018.0 |
| 20260903025156 | 80 | 299 | 2.6 | 9.6 | 0.00 | 0.00 | 0.00 | 55 | 1018.1 |
| 20260903024652 | 80 | 89 | 2.6 | 9.6 | 0.00 | 0.00 | 0.00 | 56 | 1018.1 |
| 20260903024152 | 80 | 64 | 3.5 | 9.6 | 0.00 | 0.00 | 0.00 | 56 | 1018.2 |
| 20260903023644 | 80 | 348 | 3.5 | 9.6 | 0.00 | 0.00 | 0.00 | 55 | 1018.3 |
| 20260903023142 | 80 | 342 | 3.5 | 8.7 | 0.00 | 0.00 | 0.00 | 54 | 1018.4 |
| 20260903022640 | 80 | 28 | 3.5 | 8.7 | 0.00 | 0.00 | 0.00 | 53 | 1018.7 |
| 20260903022411 | 81 | 47 | 3.5 | 8.7 | 0.00 | 0.00 | 0.00 | 52 | 1018.8 |
| 20260903021849 | 81 | 77 | 2.6 | 7.8 | 0.00 | 0.00 | 0.00 | 53 | 1018.8 |
| 20260903021342 | 81 | 341 | 2.6 | 7.8 | 0.00 | 0.00 | 0.00 | 52 | 1018.8 |
| 20260903020606 | 81 | 9 | 2.6 | 6.1 | 0.00 | 0.00 | 0.00 | 50 | 1019.0 |
| 20260903020108 | 81 | 39 | 2.6 | 6.1 | 0.00 | 0.00 | 0.00 | 50 | 1019.1 |
| 20260903015558 | 80 | 1 | 3.5 | 6.1 | 0.00 | 0.00 | 0.00 | 49 | 1019.1 |
| 20260903015057 | 80 | 1 | 2.6 | 6.1 | 0.00 | 0.00 | 0.00 | 49 | 1019.3 |
| 20260903014554 | 80 | 60 | 1.7 | 6.1 | 0.00 | 0.00 | 0.00 | 50 | 1019.3 |
| 20260903014312 | 80 | 49 | 1.7 | 6.1 | 0.00 | 0.00 | 0.00 | 51 | 1019.5 |
| 20260903013551 | 80 | 66 | 2.6 | 6.1 | 0.00 | 0.00 | 0.00 | 51 | 1019.5 |
| 20260903013310 | 80 | 53 | 2.6 | 9.6 | 0.00 | 0.00 | 0.00 | 51 | 1019.6 |
| 20260903012550 | 80 | 8 | 2.6 | 9.6 | 0.00 | 0.00 | 0.00 | 50 | 1019.7 |
| 20260903012047 | 80 | 327 | 2.6 | 7.0 | 0.00 | 0.00 | 0.00 | 51 | 1019.9 |
| 20260903011542 | 80 | 64 | 2.6 | 7.0 | 0.00 | 0.00 | 0.00 | 52 | 1020.0 |
| 20260903011040 | 80 | 16 | 2.6 | 7.0 | 0.00 | 0.00 | 0.00 | 52 | 1020.0 |
| 20260903010540 | 80 | 9 | 1.7 | 5.2 | 0.00 | 0.00 | 0.00 | 52 | 1020.1 |
| 20260903010055 | 80 | 358 | 1.7 | 6.1 | 0.00 | 0.00 | 0.00 | 53 | 1020.2 |
| 20260903005516 | 79 | 7 | 1.7 | 6.1 | 0.00 | 0.00 | 0.00 | 52 | 1020.3 |
| 20260903004949 | 79 | 348 | 2.6 | 7.0 | 0.00 | 0.00 | 0.00 | 54 | 1020.4 |
| 20260903004422 | 79 | 47 | 2.6 | 7.0 | 0.00 | 0.00 | 0.00 | 54 | 1020.5 |
| 20260903003903 | 79 | 277 | 1.7 | 6.1 | 0.00 | 0.00 | 0.00 | 54 | 1020.6 |
| 20260903003629 | 79 | 359 | 1.7 | 5.2 | 0.00 | 0.00 | 0.00 | 54 | 1020.7 |
| 20260903002839 | 79 | 18 | 2.6 | 6.1 | 0.00 | 0.00 | 0.00 | 55 | 1020.7 |
| 20260903002536 | 78 | 325 | 2.6 | 6.1 | 0.00 | 0.00 | 0.00 | 54 | 1020.8 |
| 20260903001741 | 78 | 333 | 1.7 | 6.1 | 0.00 | 0.00 | 0.00 | 54 | 1020.8 |
| 20260903001228 | 77 | 322 | 0.9 | 4.3 | 0.00 | 0.00 | 0.00 | 54 | 1020.9 |
| 20260903000650 | 77 | 318 | 1.7 | 5.2 | 0.00 | 0.00 | 0.00 | 56 | 1021.1 |
| 20260903000125 | 76 | 320 | 2.6 | 5.2 | 0.00 | 0.00 | 0.00 | 57 | 1021.2 |
| 20260902235821 | 75 | 356 | 2.6 | 7.0 | 0.00 | 0.00 | 0.00 | 57 | 1021.3 |
| 20260902235034 | 75 | 342 | 1.7 | 7.0 | 0.00 | 0.00 | 0.00 | 58 | 1021.2 |
| 20260902234506 | 75 | 310 | 1.7 | 5.2 | 0.00 | 0.00 | 0.00 | 60 | 1021.2 |
| 20260902233943 | 74 | 337 | 0.9 | 4.3 | 0.00 | 0.00 | 0.00 | 61 | 1021.2 |
| 20260902233414 | 73 | 359 | 0.9 | 6.1 | 0.00 | 0.00 | 0.00 | 63 | 1021.1 |
| 20260902233112 | 73 | 359 | 1.7 | 6.1 | 0.00 | 0.00 | 0.00 | 64 | 1021.1 |
| 20260902232553 | 72 | 323 | 1.7 | 4.3 | 0.00 | 0.00 | 0.00 | 67 | 1021.2 |
| 20260902232050 | 71 | 324 | 1.7 | 4.3 | 0.00 | 0.00 | 0.00 | 66 | 1021.2 |
| 20260902231305 | 71 | 322 | 1.7 | 3.5 | 0.00 | 0.00 | 0.00 | 69 | 1021.2 |
| 20260902230751 | 69 | 318 | 2.6 | 6.1 | 0.00 | 0.00 | 0.00 | 71 | 1021.3 |
| 20260902230209 | 69 | 322 | 2.6 | 6.1 | 0.00 | 0.00 | 0.00 | 72 | 1021.3 |
| 20260902225657 | 68 | 3 | 2.6 | 5.2 | 0.00 | 0.00 | 0.00 | 75 | 1021.4 |
| 20260902225131 | 67 | 337 | 1.7 | 5.2 | 0.00 | 0.00 | 0.00 | 77 | 1021.4 |
| 20260902224553 | 66 | 310 | 1.7 | 5.2 | 0.00 | 0.00 | 0.00 | 81 | 1021.4 |
| 20260902224036 | 66 | 336 | 1.7 | 5.2 | 0.00 | 0.00 | 0.00 | 83 | 1021.5 |
| 20260902223536 | 65 | 6 | 0.9 | 4.3 | 0.00 | 0.00 | 0.00 | 85 | 1021.5 |
| 20260902223257 | 64 | 315 | 0.9 | 4.3 | 0.00 | 0.00 | 0.00 | 87 | 1021.5 |
| 20260902222534 | 63 | 219 | 0.9 | 4.3 | 0.00 | 0.00 | 0.00 | 89 | 1021.5 |
| 20260902222250 | 62 | 258 | 0.0 | 2.6 | 0.00 | 0.00 | 0.00 | 91 | 1021.5 |
| 20260902221532 | 61 | 258 | 0.9 | 2.6 | 0.00 | 0.00 | 0.00 | 93 | 1021.4 |
| 20260902221033 | 60 | 251 | 0.9 | 2.6 | 0.00 | 0.00 | 0.00 | 93 | 1021.3 |
| 20260902220533 | 60 | 251 | 0.0 | 2.6 | 0.00 | 0.00 | 0.00 | 94 | 1021.3 |
| 20260902220030 | 59 | 245 | 0.0 | 3.5 | 0.00 | 0.00 | 0.00 | 94 | 1021.2 |
| 20260902215530 | 58 | 245 | 0.0 | 3.5 | 0.00 | 0.00 | 0.00 | 94 | 1021.1 |
| 20260902215030 | 58 | 245 | 0.9 | 3.5 | 0.00 | 0.00 | 0.00 | 94 | 1021.1 |
| 20260902214525 | 58 | 245 | 0.0 | 3.5 | 0.00 | 0.00 | 0.00 | 94 | 1021.1 |
| 20260902214022 | 57 | 342 | 0.0 | 1.7 | 0.00 | 0.00 | 0.00 | 94 | 1021.3 |
| 20260902213532 | 56 | 342 | 0.0 | 1.7 | 0.00 | 0.00 | 0.00 | 94 | 1021.3 |
| 20260902213021 | 56 | 342 | 0.0 | 1.7 | 0.00 | 0.00 | 0.00 | 94 | 1021.3 |
| 20260902212507 | 56 | 342 | 0.0 | 0.9 | 0.00 | 0.00 | 0.00 | 93 | 1021.3 |
| 20260902212020 | 55 | 342 | 0.0 | 1.7 | 0.00 | 0.00 | 0.00 | 93 | 1021.3 |
| 20260902211733 | 55 | 342 | 0.0 | 1.7 | 0.00 | 0.00 | 0.00 | 93 | 1021.3 |
| 20260902211228 | 54 | 342 | 0.0 | 0.0 | 0.00 | 0.00 | 0.00 | 93 | 1021.3 |
| 20260902210503 | 54 | 342 | 0.0 | 0.0 | 0.00 | 0.00 | 0.00 | 92 | 1021.2 |
| 20260902210000 | 53 | 342 | 0.0 | 0.0 | 0.00 | 0.00 | 0.00 | 92 | 1021.1 |
| 20260902205459 | 53 | 342 | 0.0 | 0.0 | 0.00 | 0.00 | 0.00 | 92 | 1021.1 |
| 20260902205001 | 53 | 342 | 0.0 | 0.0 | 0.00 | 0.00 | 0.00 | 92 | 1021.0 |
| 20260902204458 | 52 | 342 | 0.0 | 0.0 | 0.00 | 0.00 | 0.00 | 91 | 1020.9 |
| 20260902203957 | 52 | 342 | 0.0 | 0.0 | 0.00 | 0.00 | 0.00 | 91 | 1020.8 |
| 20260902203500 | 52 | 342 | 0.0 | 0.0 | 0.00 | 0.00 | 0.00 | 91 | 1020.7 |
| 20260902202952 | 52 | 342 | 0.0 | 0.0 | 0.00 | 0.00 | 0.00 | 91 | 1020.6 |
| 20260902202450 | 52 | 342 | 0.0 | 0.0 | 0.00 | 0.00 | 0.00 | 91 | 1020.6 |
| 20260902202205 | 52 | 342 | 0.0 | 0.0 | 0.00 | 0.00 | 0.00 | 91 | 1020.6 |
| 20260902201449 | 52 | 342 | 0.0 | 0.0 | 0.00 | 0.00 | 0.00 | 91 | 1020.5 |
| 20260902201149 | 52 | 342 | 0.0 | 0.0 | 0.00 | 0.00 | 0.00 | 91 | 1020.5 |
| 20260902200429 | 52 | 342 | 0.0 | 0.0 | 0.00 | 0.00 | 0.00 | 90 | 1020.5 |
| 20260902195902 | 53 | 342 | 0.0 | 0.9 | 0.00 | 0.00 | 0.00 | 90 | 1020.4 |
| 20260902195623 | 53 | 342 | 0.0 | 0.9 | 0.00 | 0.00 | 0.00 | 90 | 1020.4 |
| 20260902194902 | 53 | 342 | 0.0 | 0.9 | 0.00 | 0.00 | 0.00 | 90 | 1020.4 |
| 20260902194359 | 53 | 342 | 0.0 | 0.9 | 0.00 | 0.00 | 0.00 | 90 | 1020.3 |
| 20260902193859 | 53 | 342 | 0.0 | 0.9 | 0.00 | 0.00 | 0.00 | 90 | 1020.2 |
| 20260902193623 | 53 | 342 | 0.0 | 0.9 | 0.00 | 0.00 | 0.00 | 90 | 1020.2 |
| 20260902192858 | 53 | 342 | 0.0 | 0.9 | 0.00 | 0.00 | 0.00 | 90 | 1020.1 |
| 20260902192356 | 53 | 342 | 0.0 | 0.0 | 0.00 | 0.00 | 0.00 | 90 | 1020.1 |
| 20260902192113 | 53 | 342 | 0.0 | 0.0 | 0.00 | 0.00 | 0.00 | 90 | 1020.0 |
| 20260902191353 | 53 | 342 | 0.0 | 0.0 | 0.00 | 0.00 | 0.00 | 90 | 1020.0 |
| 20260902190845 | 53 | 342 | 0.0 | 0.0 | 0.00 | 0.00 | 0.00 | 90 | 1020.0 |
| 20260902190343 | 53 | 342 | 0.0 | 0.9 | 0.00 | 0.00 | 0.00 | 90 | 1020.0 |
| 20260902185842 | 53 | 342 | 0.0 | 0.9 | 0.00 | 0.00 | 0.00 | 90 | 1019.9 |
| 20260902185344 | 54 | 342 | 0.0 | 0.9 | 0.00 | 0.00 | 0.00 | 89 | 1019.8 |
| 20260902184817 | 54 | 342 | 0.0 | 1.7 | 0.00 | 0.00 | 0.00 | 89 | 1019.8 |
| 20260902184133 | 54 | 342 | 0.0 | 0.9 | 0.00 | 0.00 | 0.00 | 89 | 1019.8 |
| 20260902183626 | 54 | 342 | 0.0 | 0.9 | 0.00 | 0.00 | 0.00 | 89 | 1019.6 |
| 20260902183125 | 54 | 342 | 0.0 | 0.0 | 0.00 | 0.00 | 0.00 | 89 | 1019.6 |
| 20260902182622 | 54 | 342 | 0.0 | 0.0 | 0.00 | 0.00 | 0.00 | 89 | 1019.6 |
| 20260902182125 | 54 | 342 | 0.0 | 0.0 | 0.00 | 0.00 | 0.00 | 89 | 1019.7 |
| 20260902181614 | 55 | 342 | 0.0 | 0.0 | 0.00 | 0.00 | 0.00 | 89 | 1019.7 |
| 20260902181336 | 55 | 342 | 0.0 | 0.0 | 0.00 | 0.00 | 0.00 | 89 | 1019.7 |
| 20260902180611 | 55 | 342 | 0.0 | 0.0 | 0.00 | 0.00 | 0.00 | 88 | 1019.6 |
| 20260902180118 | 55 | 342 | 0.0 | 0.0 | 0.00 | 0.00 | 0.00 | 88 | 1019.5 |
| 20260902175608 | 55 | 342 | 0.0 | 0.0 | 0.00 | 0.00 | 0.00 | 88 | 1019.5 |
| 20260902175109 | 55 | 342 | 0.0 | 0.0 | 0.00 | 0.00 | 0.00 | 88 | 1019.6 |
| 20260902174604 | 55 | 342 | 0.0 | 0.0 | 0.00 | 0.00 | 0.00 | 88 | 1019.6 |
| 20260902174104 | 55 | 342 | 0.0 | 0.0 | 0.00 | 0.00 | 0.00 | 88 | 1019.6 |
| 20260902173555 | 56 | 342 | 0.0 | 0.0 | 0.00 | 0.00 | 0.00 | 88 | 1019.5 |
| 20260902173056 | 56 | 342 | 0.0 | 0.0 | 0.00 | 0.00 | 0.00 | 88 | 1019.5 |
| 20260902173033 | 56 | 342 | 0.0 | 0.0 | 0.00 | 0.00 | 0.00 | 88 | 1019.5 |
| 20260902172055 | 56 | 342 | 0.0 | 0.0 | 0.00 | 0.00 | 0.00 | 88 | 1019.5 |
| 20260902171529 | 56 | 342 | 0.0 | 0.9 | 0.00 | 0.00 | 0.00 | 88 | 1019.5 |
| 20260902171028 | 56 | 342 | 0.0 | 0.9 | 0.00 | 0.00 | 0.00 | 88 | 1019.4 |
| 20260902170525 | 56 | 342 | 0.0 | 0.0 | 0.00 | 0.00 | 0.00 | 88 | 1019.4 |
| 20260902170025 | 57 | 342 | 0.0 | 0.0 | 0.00 | 0.00 | 0.00 | 87 | 1019.5 |
| 20260902165522 | 57 | 342 | 0.0 | 0.0 | 0.00 | 0.00 | 0.00 | 87 | 1019.5 |
| 20260902165020 | 57 | 342 | 0.0 | 0.9 | 0.00 | 0.00 | 0.00 | 87 | 1019.5 |
| 20260902164737 | 57 | 342 | 0.0 | 0.9 | 0.00 | 0.00 | 0.00 | 87 | 1019.6 |
| 20260902164012 | 57 | 342 | 0.0 | 0.9 | 0.00 | 0.00 | 0.00 | 86 | 1019.7 |
| 20260902163512 | 58 | 342 | 0.0 | 0.9 | 0.00 | 0.00 | 0.00 | 86 | 1019.6 |
| 20260902163007 | 58 | 342 | 0.0 | 0.0 | 0.00 | 0.00 | 0.00 | 86 | 1019.7 |
| 20260902162506 | 58 | 342 | 0.0 | 0.0 | 0.00 | 0.00 | 0.00 | 86 | 1019.7 |
| 20260902162005 | 58 | 342 | 0.0 | 0.0 | 0.00 | 0.00 | 0.00 | 86 | 1019.8 |
| 20260902161502 | 58 | 342 | 0.0 | 0.0 | 0.00 | 0.00 | 0.00 | 85 | 1019.8 |
| 20260902161004 | 59 | 342 | 0.0 | 0.0 | 0.00 | 0.00 | 0.00 | 85 | 1019.8 |
| 20260902160447 | 59 | 342 | 0.0 | 0.9 | 0.00 | 0.00 | 0.00 | 84 | 1019.9 |
| 20260902160427 | 59 | 342 | 0.0 | 0.9 | 0.00 | 0.00 | 0.00 | 84 | 1019.8 |
| 20260902155657 | 59 | 342 | 0.0 | 0.0 | 0.00 | 0.00 | 0.00 | 84 | 1019.8 |
| 20260902154937 | 60 | 342 | 0.0 | 0.9 | 0.00 | 0.00 | 0.00 | 84 | 1019.9 |
| 20260902154435 | 60 | 342 | 0.0 | 0.9 | 0.00 | 0.00 | 0.00 | 84 | 1019.9 |
| 20260902153934 | 60 | 342 | 0.0 | 0.0 | 0.00 | 0.00 | 0.00 | 83 | 1019.9 |
| 20260902153432 | 60 | 342 | 0.0 | 0.0 | 0.00 | 0.00 | 0.00 | 83 | 1020.1 |
| 20260902152930 | 61 | 342 | 0.0 | 0.0 | 0.00 | 0.00 | 0.00 | 83 | 1020.2 |
| 20260902152427 | 61 | 342 | 0.0 | 0.0 | 0.00 | 0.00 | 0.00 | 83 | 1020.3 |
| 20260902152144 | 61 | 342 | 0.0 | 0.0 | 0.00 | 0.00 | 0.00 | 83 | 1020.3 |
| 20260902151425 | 62 | 342 | 0.0 | 0.9 | 0.00 | 0.00 | 0.00 | 82 | 1020.3 |
| 20260902150921 | 62 | 342 | 0.0 | 0.9 | 0.00 | 0.00 | 0.00 | 82 | 1020.3 |
| 20260902150420 | 62 | 342 | 0.0 | 0.0 | 0.00 | 0.00 | 0.00 | 82 | 1020.3 |
| 20260902150135 | 62 | 342 | 0.0 | 0.9 | 0.00 | 0.00 | 0.00 | 82 | 1020.3 |
| 20260902145411 | 62 | 342 | 0.0 | 0.9 | 0.00 | 0.00 | 0.00 | 82 | 1020.3 |
| 20260902144909 | 63 | 342 | 0.0 | 0.9 | 0.00 | 0.00 | 0.00 | 81 | 1020.3 |
| 20260902144411 | 63 | 342 | 0.0 | 0.0 | 0.00 | 0.00 | 0.00 | 81 | 1020.3 |
| 20260902143844 | 63 | 342 | 0.0 | 0.0 | 0.00 | 0.00 | 0.00 | 82 | 1020.3 |
| 20260902143331 | 63 | 342 | 0.0 | 0.0 | 0.00 | 0.00 | 0.00 | 82 | 1020.3 |
| 20260902142829 | 64 | 342 | 0.0 | 1.7 | 0.00 | 0.00 | 0.00 | 82 | 1020.3 |
| 20260902142328 | 64 | 342 | 0.0 | 1.7 | 0.00 | 0.00 | 0.00 | 82 | 1020.4 |
| 20260902142055 | 64 | 342 | 0.9 | 3.5 | 0.00 | 0.00 | 0.00 | 82 | 1020.4 |
| 20260902141549 | 64 | 342 | 1.7 | 4.3 | 0.00 | 0.00 | 0.00 | 82 | 1020.4 |
| 20260902140832 | 64 | 342 | 1.7 | 4.3 | 0.00 | 0.00 | 0.00 | 82 | 1020.4 |
| 20260902140317 | 64 | 342 | 1.7 | 4.3 | 0.00 | 0.00 | 0.00 | 82 | 1020.4 |
| 20260902140302 | 64 | 342 | 1.7 | 4.3 | 0.00 | 0.00 | 0.00 | 82 | 1020.4 |
| 20260902135314 | 64 | 351 | 1.7 | 3.5 | 0.00 | 0.00 | 0.00 | 81 | 1020.4 |
| 20260902134814 | 64 | 349 | 0.9 | 3.5 | 0.00 | 0.00 | 0.00 | 81 | 1020.4 |
| 20260902134318 | 65 | 349 | 0.9 | 3.5 | 0.00 | 0.00 | 0.00 | 81 | 1020.4 |
| 20260902133804 | 65 | 343 | 0.9 | 3.5 | 0.00 | 0.00 | 0.00 | 80 | 1020.5 |
| 20260902133302 | 65 | 339 | 0.9 | 4.3 | 0.00 | 0.01 | 0.00 | 80 | 1020.4 |
| 20260902132803 | 65 | 339 | 1.7 | 4.3 | 0.00 | 0.01 | 0.00 | 80 | 1020.6 |
| 20260902132234 | 65 | 338 | 1.7 | 4.3 | 0.00 | 0.01 | 0.00 | 79 | 1020.6 |
| 20260902131711 | 65 | 317 | 1.7 | 5.2 | 0.00 | 0.01 | 0.00 | 79 | 1020.6 |
| 20260902131438 | 65 | 357 | 2.6 | 5.2 | 0.00 | 0.01 | 0.00 | 79 | 1020.6 |
| 20260902130657 | 65 | 10 | 2.6 | 6.1 | 0.00 | 0.01 | 0.00 | 79 | 1020.6 |
| 20260902130208 | 65 | 355 | 1.7 | 6.1 | 0.00 | 0.01 | 0.00 | 79 | 1020.6 |
| 20260902125654 | 65 | 349 | 2.6 | 7.0 | 0.00 | 0.01 | 0.00 | 79 | 1020.6 |
| 20260902125154 | 65 | 3 | 3.5 | 7.0 | 0.00 | 0.01 | 0.00 | 79 | 1020.6 |
| 20260902124654 | 65 | 4 | 2.6 | 7.8 | 0.00 | 0.01 | 0.00 | 79 | 1020.7 |
| 20260902124151 | 65 | 1 | 2.6 | 7.8 | 0.00 | 0.01 | 0.00 | 80 | 1020.8 |
| 20260902123651 | 65 | 6 | 2.6 | 8.7 | 0.00 | 0.01 | 0.00 | 80 | 1020.8 |
| 20260902123152 | 65 | 295 | 3.5 | 8.7 | 0.00 | 0.01 | 0.00 | 81 | 1020.8 |
| 20260902122645 | 65 | 0 | 3.5 | 9.6 | 0.00 | 0.01 | 0.00 | 81 | 1020.8 |
| 20260902122143 | 65 | 342 | 3.5 | 9.6 | 0.00 | 0.01 | 0.00 | 81 | 1020.8 |
| 20260902121641 | 65 | 334 | 3.5 | 7.0 | 0.00 | 0.01 | 0.00 | 82 | 1020.8 |
| 20260902121144 | 65 | 335 | 3.5 | 6.1 | 0.00 | 0.01 | 0.00 | 82 | 1020.8 |
| 20260902120621 | 65 | 337 | 3.5 | 10.4 | 0.00 | 0.01 | 0.00 | 83 | 1020.7 |
| 20260902120108 | 65 | 346 | 3.5 | 10.4 | 0.00 | 0.01 | 0.00 | 83 | 1020.7 |
| 20260902115558 | 65 | 345 | 3.5 | 7.8 | 0.00 | 0.01 | 0.00 | 83 | 1020.8 |
| 20260902115052 | 65 | 309 | 3.5 | 7.8 | 0.00 | 0.01 | 0.00 | 84 | 1020.8 |
| 20260902114550 | 65 | 353 | 3.5 | 7.8 | 0.00 | 0.01 | 0.00 | 84 | 1020.8 |
| 20260902114047 | 65 | 328 | 2.6 | 6.1 | 0.00 | 0.01 | 0.00 | 83 | 1020.8 |
| 20260902113548 | 65 | 358 | 2.6 | 7.8 | 0.00 | 0.01 | 0.00 | 83 | 1020.8 |